This demonstration page uses our WeatherBlox Daily Observations layout. Learn more.

Hourly Observations for November 18, 2019

Temp ( °F °C ) Dew Point ( °F °C ) Humidity (%) Winds ( mph kmh ) Pressure ( in mb ) Visibility ( mi km ) Precip ( " mm )
12:15 am 00:15 Cloudy 44 6.6 29 -1.8 55 55 SW 7 11 29.85 1011 10 16.09344 0 0
12:35 am 00:35 Cloudy 44 6.5 28 -2 55 55 WSW 3 6 29.85 1011 10 16.09344 0 0
12:55 am 00:55 Partly Cloudy 44 6.5 28 -2 55 55 Calm 29.83 1010 10 16.09344 0 0
1:15 am 01:15 Mostly Cloudy 44 6.5 29 -1.8 56 56 WSW 3 6 29.83 1010 10 16.09344 0 0
1:35 am 01:35 Mostly Cloudy 44 6.8 28 -2 54 54 WSW 6 9 29.83 1010 10 16.09344 0 0
1:55 am 01:55 Partly Cloudy 44 6.8 28 -2 54 54 WSW 7 11 29.83 1010 10 16.09344 0 0
2:15 am 02:15 Mostly Cloudy 46 7.5 29 -1.8 52 52 W 9 15 29.8 1009 10 16.09344 0 0
2:35 am 02:35 Cloudy 46 7.8 29 -1.6 52 52 W 12 19 29.8 1009 10 16.09344 0 0
2:55 am 02:55 Cloudy 46 7.5 29 -1.6 53 53 W 9 15 29.8 1009 10 16.09344 0 0
3:15 am 03:15 Cloudy 46 7.5 30 -1.3 54 54 W 10 17 29.8 1009 10 16.09344 0 0
3:35 am 03:35 Cloudy 46 7.5 30 -1 55 55 W 10 17 29.8 1009 10 16.09344 0 0
3:55 am 03:55 Cloudy with Light Drizzle 46 7.6 31 -0.5 57 57 W 8 13 29.8 1009 10 16.09344 0 0
4:15 am 04:15 Cloudy with Light Rain 46 7.5 33 0.5 62 62 W 9 15 29.8 1009 10 16.09344 0 0
4:35 am 04:35 Mostly Cloudy 46 7.6 33 0.7 62 62 W 8 13 29.8 1009 10 16.09344 0 0
4:55 am 04:55 Partly Cloudy 46 7.5 33 0.5 62 62 W 7 11 29.8 1009 10 16.09344 0 0
5:15 am 05:15 Mostly Cloudy 45 7.4 33 0.5 62 62 W 6 9 29.8 1009 10 16.09344 0 0
5:35 am 05:35 Cloudy 46 7.8 34 0.9 62 62 W 8 13 29.8 1009 10 16.09344 0 0
5:55 am 05:55 Mostly Cloudy 45 7 33 0.7 65 65 WNW 7 11 29.83 1010 10 16.09344 0 0
6:15 am 06:15 Partly Cloudy 43 6.1 33 0.8 69 69 W 8 13 29.83 1010 10 16.09344 0 0
6:35 am 06:35 Partly Cloudy 43 6.1 34 1.1 71 71 WNW 7 11 29.83 1010 10 16.09344 0 0
6:55 am 06:55 Partly Cloudy 41 4.8 34 0.9 76 76 WNW 7 11 29.83 1010 10 16.09344 0 0
7:15 am 07:15 Mostly Cloudy 45 7 36 2.1 71 71 WNW 6 9 29.83 1010 10 16.09344 0 0
7:35 am 07:35 Mostly Cloudy 45 7 36 2.2 72 72 WNW 9 15 29.83 1010 10 16.09344 0 0
7:55 am 07:55 Cloudy 46 7.7 37 2.7 71 71 NW 12 19 29.8 1009 10 16.09344 0 0
8:15 am 08:15 Cloudy 49 9.5 38 3.6 67 67 NW 14 22 29.8 1009 10 16.09344 0 0
8:35 am 08:35 Mostly Cloudy 50 10 39 3.8 66 66 NW 14 22 29.8 1009 10 16.09344 0 0
8:55 am 08:55 Partly Cloudy 51 10.6 40 4.3 65 65 NW 13 20 29.77 1008 10 16.09344 0 0
9:15 am 09:15 Sunny 53 11.6 41 4.8 63 63 NW 12 19 29.8 1009 10 16.09344 0 0
9:35 am 09:35 Sunny 55 13 42 5.5 61 61 NW 13 20 29.77 1008 10 16.09344 0 0
9:55 am 09:55 Partly Cloudy 57 13.7 43 6.1 60 60 NW 13 20 29.8 1009 10 16.09344 0 0
10:15 am 10:15 Partly Cloudy 58 14.3 44 6.5 60 60 NW 16 26 29.77 1008 10 16.09344 0 0
10:35 am 10:35 Sunny 58 14.7 44 6.6 59 59 NW 14 22 29.77 1008 10 16.09344 0 0
10:55 am 10:55 Sunny 60 15.7 45 7.1 57 57 NW 18 30 29.77 1008 10 16.09344 0 0
11:15 am 11:15 Sunny 61 16.3 45 7 54 54 NW 18 30 29.77 1008 10 16.09344 0 0
11:35 am 11:35 Sunny 62 16.6 43 6.3 51 51 NNW 20 31 29.77 1008 10 16.09344 0 0
11:55 am 11:55 Sunny 63 17.4 43 6.2 48 48 NW 21 33 29.71 1006 10 16.09344 0 0
12:15 pm 12:15 Partly Cloudy 65 18.5 42 5.5 43 43 NNW 16 26 29.71 1006 10 16.09344 0 0
12:35 pm 12:35 Partly Cloudy 66 19.1 39 4 37 37 NW 18 30 29.71 1006 10 16.09344 0 0
12:55 pm 12:55 Sunny 67 19.3 38 3.3 35 35 NNW 15 24 29.71 1006 10 16.09344 0 0
1:15 pm 13:15 Sunny 67 19.6 37 2.6 32 32 NW 28 44 29.71 1006 10 16.09344 0 0
1:35 pm 13:35 Sunny 67 19.3 36 2 32 32 NW 24 39 29.71 1006 10 16.09344 0 0
1:55 pm 13:55 Partly Cloudy 67 19.5 37 2.8 33 33 NW 23 37 29.71 1006 10 16.09344 0 0
2:15 pm 14:15 Sunny 67 19.7 37 2.5 32 32 NW 21 33 29.71 1006 10 16.09344 0 0
2:35 pm 14:35 Partly Cloudy 68 19.8 36 2.1 31 31 NNW 25 41 29.71 1006 10 16.09344 0 0
2:55 pm 14:55 Partly Cloudy 67 19.6 34 0.9 29 29 NW 24 39 29.71 1006 10 16.09344 0 0
3:15 pm 15:15 Sunny 67 19.2 33 0.7 29 29 NNW 23 37 29.71 1006 10 16.09344 0 0
3:35 pm 15:35 Sunny 66 18.8 33 0.6 30 30 NW 22 35 29.71 1006 10 16.09344 0 0
3:55 pm 15:55 Sunny 65 18.6 33 0.3 29 29 NNW 21 33 29.71 1006 10 16.09344 0 0
4:15 pm 16:15 Sunny 65 18.3 33 0.6 31 31 NW 21 33 29.71 1006 10 16.09344 0 0
4:35 pm 16:35 Sunny 64 17.7 31 -0.7 29 29 NW 17 28 29.71 1006 10 16.09344 0 0
4:55 pm 16:55 Sunny 62 16.8 31 -0.8 30 30 NW 15 24 29.77 1008 10 16.09344 0 0
5:15 pm 17:15 Sunny 60 15.6 31 -0.8 33 33 NW 10 17 29.77 1008 10 16.09344 0 0
5:35 pm 17:35 Clear 58 14.3 30 -1 35 35 NNW 10 17 29.77 1008 10 16.09344 0 0
5:55 pm 17:55 Clear 52 10.9 28 -2 41 41 NW 10 17 29.8 1009 10 16.09344 0 0
6:15 pm 18:15 Clear 51 10.7 28 -2 41 41 NW 8 13 29.85 1011 10 16.09344 0 0
6:35 pm 18:35 Clear 53 11.4 29 -1.8 40 40 NW 9 15 29.83 1010 10 16.09344 0 0
6:55 pm 18:55 Clear 53 11.4 28 -2.1 39 39 NW 9 15 29.83 1010 10 16.09344 0 0
7:15 pm 19:15 Clear 48 9 27 -2.6 44 44 NW 8 13 29.88 1012 10 16.09344 0 0
7:35 pm 19:35 Clear 47 8.6 27 -2.8 45 45 WNW 8 13 29.88 1012 10 16.09344 0 0
7:55 pm 19:55 Clear 49 9.5 27 -2.7 43 43 WNW 10 17 29.88 1012 10 16.09344 0 0
8:15 pm 20:15 Clear 47 8.5 27 -2.7 46 46 WNW 10 17 29.88 1012 10 16.09344 0 0
8:35 pm 20:35 Clear 47 8.2 28 -2.5 47 47 NW 8 13 29.88 1012 10 16.09344 0 0
8:55 pm 20:55 Clear 45 7.1 27 -2.8 50 50 NW 8 13 29.91 1013 10 16.09344 0 0
9:15 pm 21:15 Clear 44 6.4 27 -2.8 52 52 NW 7 11 29.91 1013 10 16.09344 0 0
9:35 pm 21:35 Clear 41 5 26 -3.3 55 55 WNW 7 11 29.91 1013 10 16.09344 0 0
9:55 pm 21:55 Clear 39 4 26 -3.6 58 58 WNW 6 9 29.94 1014 10 16.09344 0 0
10:15 pm 22:15 Clear 40 4.4 26 -3.2 58 58 W 9 15 29.97 1015 10 16.09344 0 0
10:35 pm 22:35 Clear 43 5.9 27 -3 53 53 WNW 8 13 29.94 1014 10 16.09344 0 0
10:55 pm 22:55 Clear 39 4.1 26 -3.5 58 58 WNW 7 11 29.97 1015 10 16.09344 0 0
11:15 pm 23:15 Clear 40 4.3 26 -3.4 58 58 WNW 6 9 29.97 1015 10 16.09344 0 0
11:35 pm 23:35 Clear 38 3.4 26 -3.3 62 62 WNW 5 7 29.97 1015 10 16.09344 0 0
11:55 pm 23:55 Clear 36 2.4 25 -3.7 64 64 WNW 6 9 29.97 1015 10 16.09344 0 0

Powered by AerisWeather